N811NC KSTS-KBUR

Flight info

Callsign N811NC
Flight time N/A
Altitude 37000
Route RREHD1 HADLY KTINA CISKO RDHOT ROKKR3
Aircraft CL60/M-L/C

Departure

Time 2026-04-15 00:33
Airport Charles M. Schulz Sonoma County Airport (KSTS)

Arrival

Time N/A
Airport Hollywood Burbank/Bob Hope Airport (KBUR)
Time Latitude Longitude Altitude Speed Heading
2026-04-15 00:27 38.50938 -122.80583 125 ft 6 kts 269°
2026-04-15 00:27 38.50932 -122.80658 126 ft 9 kts 252°
2026-04-15 00:28 38.50953 -122.80717 126 ft 9 kts 339°
2026-04-15 00:28 38.51055 -122.80768 124 ft 21 kts 338°
2026-04-15 00:28 38.51114 -122.80873 124 ft 13 kts 315°
2026-04-15 00:28 38.51194 -122.80921 123 ft 13 kts 336°
2026-04-15 00:29 38.51296 -122.80972 121 ft 17 kts 338°
2026-04-15 00:29 38.51418 -122.81040 121 ft 20 kts 340°
2026-04-15 00:29 38.51557 -122.81113 118 ft 23 kts 337°
2026-04-15 00:29 38.51720 -122.81202 110 ft 17 kts 337°
2026-04-15 00:30 38.51775 -122.81237 107 ft 6 kts 311°
2026-04-15 00:30 38.51779 -122.81272 106 ft 2 kts 250°
2026-04-15 00:30 38.51778 -122.81274 106 ft 0 kts 247°
2026-04-15 00:31 38.51778 -122.81276 106 ft 2 kts 247°
2026-04-15 00:31 38.51763 -122.81319 106 ft 7 kts 246°
2026-04-15 00:32 38.51728 -122.81371 106 ft 3 kts 157°
2026-04-15 00:32 38.51725 -122.81369 106 ft 0 kts 155°
2026-04-15 00:32 38.51488 -122.81242 123 ft 95 kts 157°
2026-04-15 00:32 38.50594 -122.80753 383 ft 170 kts 155°
2026-04-15 00:33 38.49434 -122.80156 1277 ft 201 kts 165°
2026-04-15 00:33 38.47929 -122.80260 2096 ft 241 kts 208°
2026-04-15 00:33 38.46792 -122.81723 3356 ft 244 kts 246°
2026-04-15 00:33 38.46158 -122.83708 4967 ft 252 kts 250°
2026-04-15 00:34 38.45503 -122.85678 6671 ft 252 kts 248°
2026-04-15 00:34 38.44770 -122.87643 8197 ft 256 kts 245°
2026-04-15 00:34 38.43892 -122.89625 9671 ft 263 kts 243°
2026-04-15 00:34 38.42950 -122.91595 11085 ft 269 kts 242°
2026-04-15 00:35 38.41983 -122.93613 12432 ft 275 kts 242°
2026-04-15 00:35 38.40994 -122.95670 13763 ft 281 kts 242°
2026-04-15 00:35 38.39710 -122.97614 14731 ft 303 kts 223°
2026-04-15 00:35 38.37867 -122.99026 15723 ft 321 kts 206°
2026-04-15 00:36 38.37323 -122.99289 16009 ft 324 kts 201°